User: anonymous   Login
Location: El Águila
(10.4167°N, 66.7167°W)
Time: 00:10:18
(UTC+00:00)
Language:

Aureole 3 Rocket - Orbit

View from above orbital plane
View from above orbital plane
View from above satellite
View from above satellite

Ground track
Ground track

The orbit data is extracted from the following two-line orbital elements,

1 12849U 81094B   23031.49104662  .00002071  00000-0  19379-3 0  9999
2 12849  82.4924  28.7910 0893650 286.4245  64.0579 13.52131615 19250
Epoch (UTC): 31 January 2023 11:47:06
Eccentricity: 0.0893650
inclination: 82.4924°
perigee height: 399 km
apogee height: 1729 km
right ascension of ascending node: 28.7910°
argument of perigee: 286.4245°
revolutions per day: 13.52131615
mean anomaly at epoch: 64.0579°
orbit number at epoch: 1925

The dashed part of the orbit path shows where the satellite is in the earth's shadow,  

DLR